Total_Precipitation_Accumulation
0.49 0.75 1.17 1.74 1.90 2.24 2.03 1.52 1.13 0.90 0.83 0.87 0.92 1.03 1.17 1.31 1.43 1.53 1.53 1.51 1.46 1.47 1.59 1.60 1.52 1.38 1.25 1.13 1.03 0.95 0.82 0.70 0.64 0.58 0.47 0.35 0.29 0.28 0.27 0.26 0.24 0.21 0.20
0.61 0.91 1.28 1.63 1.72 1.71 1.67 1.64 1.54 1.38 1.26 1.39 1.60 1.92 2.15 2.25 2.39 2.39 2.34 2.31 2.28 2.22 2.16 2.07 1.91 1.68 1.46 1.24 1.06 0.93 0.82 0.71 0.65 0.58 0.53 0.43 0.32 0.23 0.18 0.18 0.18 0.18 0.17
0.63 0.84 1.13 1.33 1.60 1.81 1.86 1.89 1.80 1.75 1.81 2.02 2.22 2.59 2.89 2.98 2.90 2.71 2.69 2.62 2.44 2.34 2.20 2.03 1.88 1.68 1.46 1.26 1.11 0.95 0.81 0.68 0.58 0.54 0.55 0.52 0.41 0.28 0.19 0.16 0.15 0.15 0.15
0.57 0.73 0.93 1.04 1.21 1.53 1.72 1.80 1.83 2.02 2.30 2.68 2.91 3.03 3.26 3.27 3.13 2.91 2.70 2.47 2.25 2.06 1.91 1.84 1.76 1.62 1.42 1.22 1.04 0.90 0.78 0.70 0.63 0.55 0.45 0.40 0.34 0.33 0.27 0.20 0.17 0.16 0.15
0.49 0.64 0.68 0.76 0.90 1.15 1.38 1.60 1.85 2.20 2.62 2.97 3.25 3.38 3.39 3.28 3.05 2.73 2.45 2.24 2.06 1.86 1.74 1.67 1.51 1.34 1.18 1.01 0.85 0.74 0.68 0.64 0.57 0.47 0.39 0.35 0.30 0.29 0.31 0.25 0.17 0.14 0.13
0.40 0.50 0.57 0.59 0.74 0.96 1.21 1.40 1.73 2.22 2.53 2.81 3.14 3.20 3.17 3.06 2.86 2.60 2.34 2.14 1.95 1.78 1.57 1.36 1.21 1.08 0.95 0.81 0.69 0.59 0.52 0.48 0.45 0.40 0.37 0.35 0.33 0.31 0.33 0.30 0.22 0.17 0.14
0.37 0.49 0.52 0.56 0.76 0.99 1.22 1.45 1.75 2.07 2.24 2.32 2.45 2.58 2.61 2.57 2.51 2.36 2.12 1.85 1.62 1.39 1.21 1.02 0.89 0.82 0.76 0.69 0.59 0.51 0.43 0.39 0.39 0.37 0.37 0.35 0.33 0.30 0.31 0.33 0.28 0.23 0.18
0.47 0.52 0.58 0.61 0.77 0.90 1.06 1.23 1.39 1.59 1.72 1.73 1.82 1.96 2.03 2.04 1.99 1.80 1.57 1.35 1.15 0.96 0.79 0.68 0.60 0.52 0.46 0.43 0.43 0.43 0.42 0.39 0.39 0.37 0.38 0.37 0.33 0.31 0.32 0.35 0.38 0.34 0.25
0.50 0.55 0.61 0.69 0.81 0.83 0.88 0.92 0.96 1.01 1.12 1.20 1.23 1.25 1.25 1.26 1.26 1.17 1.04 0.95 0.85 0.72 0.59 0.52 0.48 0.44 0.39 0.36 0.36 0.36 0.38 0.39 0.39 0.38 0.39 0.37 0.33 0.30 0.30 0.32 0.40 0.45 0.38
0.50 0.57 0.58 0.59 0.63 0.61 0.65 0.67 0.64 0.68 0.72 0.71 0.70 0.73 0.77 0.79 0.77 0.69 0.65 0.64 0.62 0.57 0.51 0.48 0.45 0.41 0.37 0.36 0.37 0.38 0.39 0.39 0.37 0.34 0.30 0.26 0.23 0.21 0.20 0.22 0.26 0.35 0.42
0.54 0.54 0.53 0.48 0.43 0.41 0.42 0.46 0.44 0.42 0.42 0.42 0.44 0.47 0.48 0.49 0.49 0.48 0.46 0.43 0.42 0.42 0.42 0.40 0.37 0.36 0.36 0.36 0.36 0.33 0.29 0.26 0.24 0.21 0.19 0.19 0.18 0.19 0.18 0.21 0.25 0.30 0.40
0.56 0.52 0.48 0.44 0.39 0.35 0.32 0.31 0.32 0.33 0.31 0.28 0.27 0.29 0.31 0.30 0.30 0.32 0.35 0.34 0.33 0.33 0.33 0.30 0.29 0.27 0.26 0.25 0.23 0.21 0.19 0.18 0.17 0.17 0.18 0.17 0.18 0.19 0.20 0.24 0.28 0.32 0.42
0.71 0.62 0.51 0.43 0.38 0.34 0.31 0.28 0.29 0.29 0.27 0.24 0.23 0.22 0.22 0.23 0.23 0.23 0.24 0.24 0.24 0.24 0.24 0.23 0.23 0.21 0.19 0.18 0.17 0.17 0.15 0.15 0.16 0.17 0.18 0.18 0.22 0.24 0.28 0.36 0.40 0.42 0.46
0.83 0.67 0.57 0.48 0.41 0.37 0.34 0.32 0.31 0.29 0.25 0.22 0.18 0.18 0.19 0.21 0.20 0.20 0.21 0.21 0.20 0.21 0.22 0.20 0.18 0.16 0.14 0.12 0.11 0.11 0.10 0.12 0.14 0.17 0.21 0.25 0.30 0.35 0.40 0.42 0.43 0.48 0.54
0.88 0.75 0.68 0.59 0.48 0.43 0.40 0.37 0.34 0.30 0.24 0.20 0.19 0.21 0.23 0.25 0.25 0.25 0.25 0.25 0.25 0.23 0.22 0.19 0.16 0.14 0.11 0.08 0.06 0.05 0.07 0.11 0.14 0.17 0.20 0.25 0.33 0.40 0.39 0.37 0.39 0.50 0.62
1.06 1.02 0.95 0.83 0.69 0.57 0.50 0.45 0.41 0.37 0.33 0.33 0.34 0.34 0.33 0.32 0.32 0.31 0.30 0.29 0.27 0.23 0.19 0.15 0.12 0.10 0.06 0.05 0.05 0.05 0.07 0.13 0.18 0.21 0.22 0.20 0.23 0.22 0.23 0.29 0.35 0.46 0.64
1.36 1.26 1.10 0.95 0.83 0.73 0.66 0.62 0.56 0.51 0.49 0.48 0.45 0.40 0.37 0.35 0.33 0.30 0.31 0.29 0.24 0.19 0.15 0.12 0.08 0.08 0.05 0.03 0.04 0.05 0.07 0.15 0.22 0.26 0.24 0.19 0.15 0.18 0.22 0.26 0.31 0.43 0.59
1.24 1.13 0.98 0.86 0.82 0.80 0.77 0.69 0.60 0.56 0.53 0.51 0.47 0.39 0.32 0.29 0.28 0.29 0.27 0.21 0.16 0.15 0.13 0.10 0.07 0.09 0.05 0.02 0.02 0.03 0.06 0.14 0.19 0.22 0.23 0.24 0.24 0.21 0.24 0.25 0.31 0.45 0.61
1.02 0.97 0.91 0.88 0.89 0.87 0.78 0.70 0.63 0.56 0.52 0.47 0.38 0.29 0.23 0.23 0.22 0.20 0.17 0.15 0.15 0.14 0.09 0.06 0.07 0.09 0.07 0.02 0.02 0.02 0.05 0.10 0.14 0.17 0.18 0.16 0.20 0.21 0.32 0.41 0.53 0.66 0.83
0.90 0.92 0.98 1.02 0.97 0.85 0.69 0.60 0.53 0.45 0.38 0.30 0.24 0.20 0.17 0.14 0.12 0.13 0.13 0.13 0.13 0.11 0.07 0.05 0.06 0.09 0.09 0.02 0.00 0.01 0.04 0.07 0.10 0.15 0.20 0.17 0.17 0.25 0.41 0.57 0.73 0.85 0.97
0.86 0.89 0.89 0.86 0.79 0.67 0.56 0.52 0.44 0.36 0.25 0.18 0.15 0.12 0.09 0.08 0.07 0.10 0.12 0.12 0.10 0.10 0.08 0.07 0.08 0.09 0.06 0.03 0.00 0.01 0.02 0.04 0.08 0.15 0.25 0.30 0.25 0.32 0.52 0.71 0.80 0.97 1.05
0.80 0.77 0.70 0.63 0.53 0.44 0.41 0.40 0.33 0.23 0.14 0.11 0.08 0.07 0.06 0.04 0.05 0.10 0.11 0.11 0.12 0.11 0.09 0.09 0.08 0.09 0.09 0.04 0.01 0.00 0.01 0.04 0.11 0.25 0.31 0.36 0.35 0.41 0.61 0.77 0.96 1.16 1.25
0.63 0.57 0.47 0.40 0.33 0.27 0.27 0.27 0.20 0.13 0.10 0.10 0.10 0.08 0.06 0.06 0.05 0.09 0.10 0.10 0.10 0.09 0.07 0.07 0.08 0.08 0.11 0.08 0.01 0.01 0.02 0.04 0.12 0.26 0.35 0.39 0.42 0.57 0.86 1.06 1.21 1.33 1.34
0.42 0.36 0.30 0.26 0.21 0.16 0.15 0.13 0.09 0.08 0.11 0.12 0.11 0.10 0.11 0.10 0.08 0.08 0.06 0.07 0.07 0.06 0.07 0.08 0.09 0.11 0.12 0.08 0.05 0.05 0.06 0.08 0.13 0.26 0.40 0.51 0.58 0.74 1.02 1.23 1.39 1.42 1.30
0.23 0.20 0.18 0.15 0.10 0.08 0.06 0.05 0.05 0.06 0.10 0.11 0.10 0.09 0.10 0.11 0.11 0.09 0.04 0.03 0.04 0.02 0.04 0.07 0.09 0.11 0.11 0.06 0.07 0.09 0.10 0.11 0.16 0.25 0.40 0.54 0.66 0.84 1.04 1.20 1.29 1.28 1.18
0.13 0.12 0.10 0.08 0.06 0.04 0.03 0.02 0.02 0.04 0.10 0.11 0.09 0.07 0.07 0.07 0.08 0.13 0.10 0.02 0.01 0.01 0.02 0.03 0.05 0.06 0.06 0.05 0.07 0.10 0.13 0.17 0.23 0.30 0.43 0.54 0.66 0.84 1.02 1.13 1.14 1.07 0.99